Romeoville, IL

8:27 AM CDT on April 26, 2017 (GMT -0500)
Lewis University

Weather History for KLOT - November, 2013

Change the Weather History Date:

Monday, November 4, 2013

  Actual Average Record
Temperature  
Mean Temperature 50 °F 46 °F  
Max Temperature 57 °F 55 °F 73 °F (2003)
Min Temperature 42 °F 38 °F 19 °F (1995)
Degree Days  
Heating Degree Days 15 19  
Month to date heating degree days 83 74  
Since 1 July heating degree days 555 561  
Cooling Degree Days 0 0  
Month to date cooling degree days 0 0  
Year to date cooling degree days 950 862  
Moisture  
Dew Point 38 °F    
Average Humidity 67    
Maximum Humidity 78    
Minimum Humidity 49    
Precipitation  
Precipitation 0.00 in 0.13 in 1.07 in (2003)
Month to date precipitation 0.10 0.49  
Year to date precipitation 36.58 34.85  
Snow  
Snow 0.00 in 0.00 in T in (2012)
Month to date snowfall 0.0 0.0  
Since 1 July snowfall T 0.0  
Since 1 September snowfall T 0.0  
Snow Depth 0.00 in    
Sea Level Pressure  
Sea Level Pressure 30.20 in    
Wind  
Wind Speed 14 mph (South)    
Max Wind Speed 22 mph    
Max Gust Speed 29 mph    
Visibility 10 miles    
Events      
T = Trace of Precipitation, MM = Missing Value Source: NWS Daily Summary

Daily Weather History Graph

Daily Weather History Graph

Search for Another Location

Airport or City:

Trip Planner

Search our weather history database for the weather conditions in past years. The results will help you decide how hot, cold, wet, or windy it might be!

Date:

Astronomy

Nov. 04, 2013 Rise Set
Actual Time 6:28 AM CST 4:43 PM CST
Civil Twilight 5:59 AM CST 5:12 PM CST
Nautical Twilight 5:26 AM CST 5:45 PM CST
Astronomical Twilight 4:53 AM CST 6:17 PM CST
Moon 7:39 AM CST (11/4) 5:46 PM CST (11/4)
Length of Visible Light 11h 12m
Length of Day
10h 14m
New Moon, 2% of the Moon is Illuminated
Nov 4
New Moon
Nov 9
First Quarter
Nov 17
Full
Nov 25
Last Quarter
Dec 2
New

Hourly Weather History & Observations

Time (CST) Temp. Windchill Dew Point Humidity Pressure Visibility Wind Dir Wind Speed Gust Speed Precip Events Conditions
12:15 AM 42.8 °F 36.6 °F 35.4 °F 75% 30.28 in 10.0 mi SSE 11.5 mph - N/A   Clear
12:35 AM 42.4 °F 35.7 °F 35.1 °F 75% 30.27 in 10.0 mi SSE 12.7 mph - N/A   Clear
12:55 AM 42.8 °F 36.6 °F 35.1 °F 74% 30.26 in 10.0 mi SSE 11.5 mph - N/A   Clear
1:15 AM 43.2 °F 36.6 °F 35.1 °F 73% 30.26 in 10.0 mi SE 12.7 mph 20.7 mph N/A   Clear
1:35 AM 42.4 °F 36.1 °F 35.6 °F 77% 30.25 in 10.0 mi SSE 11.5 mph 17.3 mph N/A   Clear
1:55 AM 42.6 °F 36.8 °F 35.2 °F 75% 30.26 in 10.0 mi SSE 10.4 mph - N/A   Clear
2:15 AM 42.3 °F 36.3 °F 34.9 °F 75% 30.26 in 10.0 mi SSE 10.4 mph 17.3 mph N/A   Clear
2:35 AM 41.7 °F 35.6 °F 34.9 °F 77% 30.26 in 10.0 mi SSE 10.4 mph - N/A   Clear
2:55 AM 41.4 °F 34.3 °F 34.9 °F 78% 30.25 in 10.0 mi SSE 12.7 mph 19.6 mph N/A   Clear
3:15 AM 41.7 °F 35.2 °F 34.9 °F 77% 30.26 in 10.0 mi SSE 11.5 mph - N/A   Clear
3:35 AM 41.7 °F 35.2 °F 34.9 °F 77% 30.26 in 10.0 mi SSE 11.5 mph - N/A   Clear
3:55 AM 41.9 °F 35.4 °F 34.9 °F 76% 30.25 in 10.0 mi SSE 11.5 mph - N/A   Clear
4:15 AM 41.9 °F 34.3 °F 34.9 °F 76% 30.24 in 10.0 mi SSE 15.0 mph - N/A   Clear
4:35 AM 42.1 °F 34.9 °F 34.7 °F 75% 30.24 in 10.0 mi SSE 13.8 mph - N/A   Clear
4:55 AM 42.3 °F 35.5 °F 34.7 °F 75% 30.25 in 10.0 mi SSE 12.7 mph 20.7 mph N/A   Clear
5:15 AM 41.9 °F 34.6 °F 34.7 °F 76% 30.24 in 10.0 mi SSE 13.8 mph 20.7 mph N/A   Clear
5:35 AM 41.9 °F 34.3 °F 34.7 °F 76% 30.24 in 10.0 mi SSE 15.0 mph - N/A   Clear
5:55 AM 41.9 °F 34.3 °F 34.7 °F 76% 30.23 in 10.0 mi SSE 15.0 mph - N/A   Clear
6:15 AM 41.9 °F 34.6 °F 34.9 °F 76% 30.23 in 10.0 mi SSE 13.8 mph - N/A   Clear
6:35 AM 41.9 °F 34.3 °F 35.1 °F 77% 30.23 in 10.0 mi SSE 15.0 mph - N/A   Clear
6:55 AM 41.9 °F 34.3 °F 35.2 °F 77% 30.23 in 10.0 mi SSE 15.0 mph 23.0 mph N/A   Clear
7:15 AM 42.3 °F 34.8 °F 35.2 °F 76% 30.23 in 10.0 mi SSE 15.0 mph 20.7 mph N/A   Clear
7:35 AM 43.0 °F 36.0 °F 35.6 °F 75% 30.23 in 10.0 mi SSE 13.8 mph - N/A   Clear
7:55 AM 43.9 °F 36.8 °F 36.0 °F 74% 30.22 in 10.0 mi SSE 15.0 mph - N/A   Clear
8:15 AM 45.7 °F 38.3 °F 36.1 °F 69% 30.22 in 10.0 mi SSE 18.4 mph 25.3 mph N/A   Clear
8:35 AM 45.9 °F 38.8 °F 36.0 °F 68% 30.22 in 10.0 mi South 17.3 mph 24.2 mph N/A   Clear
8:55 AM 47.3 °F - 36.1 °F 65% 30.22 in 10.0 mi South 20.7 mph 28.8 mph N/A   Clear
9:15 AM 47.5 °F - 36.5 °F 66% 30.21 in 10.0 mi South 20.7 mph 26.5 mph N/A   Clear
9:35 AM 48.2 °F - 37.0 °F 65% 30.21 in 10.0 mi South 15.0 mph 24.2 mph N/A   Clear
9:55 AM 49.1 °F - 37.4 °F 64% 30.21 in 10.0 mi SSE 17.3 mph - N/A   Clear
10:15 AM 50.4 °F - 37.6 °F 62% 30.21 in 10.0 mi South 19.6 mph 23.0 mph N/A   Clear
10:35 AM 52.7 °F - 37.8 °F 57% 30.20 in 10.0 mi South 17.3 mph 24.2 mph N/A   Clear
10:55 AM 52.9 °F - 37.2 °F 55% 30.19 in 10.0 mi South 17.3 mph 24.2 mph N/A   Clear
11:15 AM 54.0 °F - 37.4 °F 54% 30.19 in 10.0 mi South 17.3 mph 26.5 mph N/A   Clear
11:35 AM 53.2 °F - 37.8 °F 56% 30.17 in 10.0 mi South 16.1 mph 24.2 mph N/A   Clear
11:55 AM 52.7 °F - 37.0 °F 55% 30.16 in 10.0 mi South 17.3 mph 23.0 mph N/A   Clear
12:15 PM 52.7 °F - 37.4 °F 56% 30.15 in 10.0 mi South 18.4 mph 24.2 mph N/A   Clear
12:35 PM 53.1 °F - 37.4 °F 55% 30.15 in 10.0 mi South 12.7 mph 24.2 mph N/A   Clear
12:55 PM 54.5 °F - 37.6 °F 53% 30.14 in 10.0 mi South 15.0 mph 23.0 mph N/A   Clear
1:15 PM 55.4 °F - 37.6 °F 51% 30.14 in 10.0 mi South 17.3 mph 23.0 mph N/A   Clear
1:35 PM 55.0 °F - 37.8 °F 52% 30.14 in 10.0 mi South 16.1 mph 24.2 mph N/A   Scattered Clouds
1:55 PM 57.2 °F - 37.9 °F 49% 30.14 in 10.0 mi South 21.9 mph 27.6 mph N/A   Overcast
2:15 PM 55.6 °F - 38.1 °F 52% 30.13 in 10.0 mi South 19.6 mph 25.3 mph N/A   Overcast
2:35 PM 55.0 °F - 38.7 °F 54% 30.13 in 10.0 mi South 15.0 mph 23.0 mph N/A   Overcast
2:55 PM 54.7 °F - 39.4 °F 56% 30.12 in 10.0 mi South 17.3 mph 23.0 mph N/A   Overcast
3:15 PM 55.0 °F - 39.4 °F 56% 30.11 in 10.0 mi South 19.6 mph - N/A   Mostly Cloudy
3:35 PM 55.8 °F - 40.1 °F 56% 30.12 in 7.0 mi South 16.1 mph - N/A   Mostly Cloudy
3:55 PM 55.9 °F - 40.3 °F 56% 30.12 in 10.0 mi South 13.8 mph 21.9 mph N/A   Mostly Cloudy
4:15 PM 55.0 °F - 40.5 °F 58% 30.12 in 7.0 mi SSW 15.0 mph 20.7 mph N/A   Scattered Clouds
4:35 PM 53.8 °F - 40.5 °F 61% 30.13 in 7.0 mi South 17.3 mph 23.0 mph N/A   Clear
4:55 PM 52.9 °F - 40.6 °F 63% 30.13 in 7.0 mi South 13.8 mph - N/A   Clear
5:15 PM 53.1 °F - 41.0 °F 64% 30.14 in 10.0 mi South 12.7 mph - N/A   Clear
5:35 PM 53.2 °F - 41.2 °F 64% 30.14 in 10.0 mi South 15.0 mph - N/A   Scattered Clouds
5:55 PM 52.9 °F - 41.5 °F 65% 30.15 in 10.0 mi South 12.7 mph - N/A   Overcast
6:15 PM 53.1 °F - 41.7 °F 65% 30.15 in 10.0 mi South 16.1 mph - N/A   Overcast
6:35 PM 52.7 °F - 41.9 °F 67% 30.16 in 10.0 mi South 15.0 mph - N/A   Overcast
6:55 PM 53.2 °F - 41.9 °F 65% 30.17 in 10.0 mi SSW 13.8 mph - N/A   Overcast
7:15 PM 53.1 °F - 41.9 °F 66% 30.17 in 10.0 mi SSW 17.3 mph 24.2 mph N/A   Overcast
7:35 PM 52.9 °F - 41.9 °F 66% 30.18 in 10.0 mi SSW 13.8 mph 18.4 mph N/A   Overcast
7:55 PM 52.9 °F - 41.9 °F 66% 30.18 in 10.0 mi SSW 12.7 mph - N/A   Overcast
8:15 PM 52.7 °F - 41.9 °F 67% 30.18 in 10.0 mi SSW 12.7 mph - N/A   Overcast
8:35 PM 52.5 °F - 42.1 °F 68% 30.18 in 10.0 mi SSW 11.5 mph - N/A   Overcast
8:55 PM 52.2 °F - 41.9 °F 68% 30.18 in 10.0 mi SSW 12.7 mph - N/A   Overcast
9:15 PM 51.1 °F - 41.9 °F 71% 30.19 in 10.0 mi SSW 10.4 mph - N/A   Overcast
9:35 PM 51.6 °F - 42.3 °F 70% 30.19 in 10.0 mi SSW 11.5 mph - N/A   Overcast
9:55 PM 52.2 °F - 42.3 °F 69% 30.19 in 10.0 mi SSW 11.5 mph 19.6 mph N/A   Overcast
10:15 PM 52.5 °F - 42.1 °F 68% 30.19 in 10.0 mi SSW 13.8 mph 19.6 mph N/A   Overcast
10:35 PM 52.3 °F - 42.1 °F 68% 30.20 in 10.0 mi SW 11.5 mph 16.1 mph N/A   Overcast
10:55 PM 52.0 °F - 42.1 °F 69% 30.19 in 10.0 mi SSW 11.5 mph - N/A   Overcast
11:15 PM 51.8 °F - 42.4 °F 70% 30.21 in 10.0 mi SW 9.2 mph - N/A   Overcast
11:35 PM 51.6 °F - 42.6 °F 71% 30.21 in 10.0 mi SSW 9.2 mph - N/A   Overcast
11:55 PM 51.4 °F - 42.8 °F 72% 30.21 in 10.0 mi SSW 9.2 mph - N/A   Overcast